Stations météo

réclame
Mon MeteoGroup
Treviso/S. Angelo, Italie (16099): Température de l'air & dewpoint: 14.06.2018 07:00:00 - 20.06.2018 07:00:00 (CEST)Treviso/S. Angelo, Italie (16099): Vitesse du vent: 14.06.2018 07:00:00 - 20.06.2018 07:00:00 (CEST)Treviso/S. Angelo, Italie (16099): Direction du vent: 14.06.2018 07:00:00 - 20.06.2018 07:00:00 (CEST)Treviso/S. Angelo, Italie (16099): reduced air pressure: 14.06.2018 07:00:00 - 20.06.2018 07:00:00 (CEST)Treviso/S. Angelo, Italie (16099): visibility: 14.06.2018 07:00:00 - 20.06.2018 07:00:00 (CEST)Treviso/S. Angelo, Italie (16099): Quantités de précipitations: 14.06.2018 07:00:00 - 20.06.2018 07:00:00 (CEST)
Date & Time tt [°C] td [°C] ff [km/h] ff [knt] dd ppp [hPa] vv [km] rr [mm]
20.06.2018 07:00:00 - - - - - - - -
20.06.2018 06:00:00 - - - - - - - -
20.06.2018 05:00:00 22,8 15,2 5 3 N 1020,4 - 0,0
20.06.2018 04:00:00 - - - - - - - -
20.06.2018 03:00:00 - - - - - - - -
20.06.2018 02:00:00 24,2 15,7 4 2 N 1020,5 - -
20.06.2018 01:00:00 - - - - - - - -
20.06.2018 00:00:00 - - - - - - - -
19.06.2018 23:00:00 23,8 15,1 0 0 N 1019,6 20 0,0
19.06.2018 22:00:00 - - - - - - - -
19.06.2018 21:00:00 - - - - - - - -
19.06.2018 20:00:00 28,3 14,1 5 3 SSW 1018,1 - -
19.06.2018 19:00:00 - - - - - - - -
19.06.2018 18:00:00 - - - - - - - -
19.06.2018 17:00:00 30,9 12,8 11 6 SSW 1018,4 20 0,0
19.06.2018 16:00:00 - - - - - - - -
19.06.2018 15:00:00 - - - - - - - -
19.06.2018 14:00:00 30,2 12,4 5 3 SSW 1019,6 25 -
19.06.2018 13:00:00 - - - - - - - -
19.06.2018 12:00:00 - - - - - - - -
19.06.2018 11:00:00 28,6 11,6 2 1 N 1020,5 20 0,0
19.06.2018 10:00:00 - - - - - - - -
19.06.2018 09:00:00 - - - - - - - -
19.06.2018 08:00:00 24,9 15,0 4 2 N 1020,0 20 -
19.06.2018 07:00:00 - - - - - - - -
19.06.2018 06:00:00 - - - - - - - -
19.06.2018 05:00:00 20,3 16,0 2 1 - 1019,0 - 0,0
19.06.2018 04:00:00 - - - - - - - -
19.06.2018 03:00:00 - - - - - - - -
19.06.2018 02:00:00 22,8 16,1 5 3 ENE 1018,4 - -
19.06.2018 01:00:00 - - - - - - - -
19.06.2018 00:00:00 - - - - - - - -
18.06.2018 23:00:00 23,6 15,3 4 2 NNW 1018,0 20 0,0
18.06.2018 22:00:00 - - - - - - - -
18.06.2018 21:00:00 - - - - - - - -
18.06.2018 20:00:00 26,1 15,0 11 6 NW 1015,0 30 -
18.06.2018 19:00:00 - - - - - - - -
18.06.2018 18:00:00 - - - - - - - -
18.06.2018 17:00:00 30,6 14,2 5 3 SSE 1015,1 20 0,0
18.06.2018 16:00:00 - - - - - - - -
18.06.2018 15:00:00 - - - - - - - -
18.06.2018 14:00:00 29,6 15,1 4 2 S 1015,7 30 -
18.06.2018 13:00:00 - - - - - - - -
18.06.2018 12:00:00 - - - - - - - -
18.06.2018 11:00:00 24,4 18,3 5 3 SW 1016,6 - 0,0
18.06.2018 10:00:00 - - - - - - - -
18.06.2018 09:00:00 - - - - - - - -
18.06.2018 08:00:00 22,0 16,5 11 6 W 1016,0 - -
18.06.2018 07:00:00 - - - - - - - -
18.06.2018 06:00:00 - - - - - - - -
18.06.2018 05:00:00 20,4 15,5 2 1 N 1014,5 - 0,0
18.06.2018 04:00:00 - - - - - - - -
18.06.2018 03:00:00 - - - - - - - -
18.06.2018 02:00:00 21,3 15,0 4 2 N 1014,6 - -
18.06.2018 01:00:00 - - - - - - - -
18.06.2018 00:00:00 - - - - - - - -
17.06.2018 23:00:00 24,5 14,4 4 2 N 1014,0 20 0,0
17.06.2018 22:00:00 - - - - - - - -
17.06.2018 21:00:00 - - - - - - - -
17.06.2018 20:00:00 27,3 14,6 8 4 SSE 1012,3 30 -
17.06.2018 19:00:00 - - - - - - - -
17.06.2018 18:00:00 - - - - - - - -
17.06.2018 17:00:00 30,1 14,3 8 4 S 1012,2 - 0,0
17.06.2018 16:00:00 - - - - - - - -
17.06.2018 15:00:00 - - - - - - - -
17.06.2018 14:00:00 29,8 14,6 8 4 ESE 1013,4 10 -
17.06.2018 13:00:00 - - - - - - - -
17.06.2018 12:00:00 - - - - - - - -
17.06.2018 11:00:00 28,2 12,6 4 2 SSW 1013,7 20 0,0
17.06.2018 10:00:00 - - - - - - - -
17.06.2018 09:00:00 - - - - - - - -
17.06.2018 08:00:00 23,8 14,9 4 2 NNW 1013,5 20 -
17.06.2018 07:00:00 - - - - - - - -
17.06.2018 06:00:00 - - - - - - - -
17.06.2018 05:00:00 20,0 14,9 2 1 N 1013,0 - 0,0
17.06.2018 04:00:00 - - - - - - - -
17.06.2018 03:00:00 - - - - - - - -
17.06.2018 02:00:00 21,7 14,3 5 3 N 1013,3 - -
17.06.2018 01:00:00 - - - - - - - -
17.06.2018 00:00:00 - - - - - - - -
16.06.2018 23:00:00 23,2 13,9 2 1 N 1012,4 30 0,0
16.06.2018 22:00:00 - - - - - - - -
16.06.2018 21:00:00 - - - - - - - -
16.06.2018 20:00:00 27,9 11,2 5 3 WSW 1011,1 10 -
16.06.2018 19:00:00 - - - - - - - -
16.06.2018 18:00:00 - - - - - - - -
16.06.2018 17:00:00 28,8 11,0 5 3 SE 1011,3 10 0,0
16.06.2018 16:00:00 - - - - - - - -
16.06.2018 15:00:00 - - - - - - - -
16.06.2018 14:00:00 28,3 11,7 4 2 N 1012,2 10 -
16.06.2018 13:00:00 - - - - - - - -
16.06.2018 12:00:00 - - - - - - - -
16.06.2018 11:00:00 26,6 12,7 4 2 N 1013,0 10 0,0
16.06.2018 10:00:00 - - - - - - - -
16.06.2018 09:00:00 - - - - - - - -
16.06.2018 08:00:00 22,5 14,9 4 2 ENE 1013,1 10 -
16.06.2018 07:00:00 - - - - - - - -
16.06.2018 06:00:00 - - - - - - - -
16.06.2018 05:00:00 17,2 13,6 2 1 NNW 1012,9 - 0,0
16.06.2018 04:00:00 - - - - - - - -
16.06.2018 03:00:00 - - - - - - - -
16.06.2018 02:00:00 19,7 13,5 5 3 NNE 1013,3 - -
16.06.2018 01:00:00 - - - - - - - -
16.06.2018 00:00:00 - - - - - - - -
15.06.2018 23:00:00 22,5 12,2 5 3 NNE 1012,7 10 0,0
15.06.2018 22:00:00 - - - - - - - -
15.06.2018 21:00:00 - - - - - - - -
15.06.2018 20:00:00 24,4 13,2 9 5 SE 1011,3 10 -
15.06.2018 19:00:00 - - - - - - - -
15.06.2018 18:00:00 - - - - - - - -
15.06.2018 17:00:00 27,3 13,1 5 3 N 1011,1 10 0,0
15.06.2018 16:00:00 - - - - - - - -
15.06.2018 15:00:00 - - - - - - - -
15.06.2018 14:00:00 26,6 11,5 11 6 ENE 1011,4 30 -
15.06.2018 13:00:00 - - - - - - - -
15.06.2018 12:00:00 - - - - - - - -
15.06.2018 11:00:00 24,4 13,1 5 3 S 1011,9 30 0,0
15.06.2018 10:00:00 - - - - - - - -
15.06.2018 09:00:00 - - - - - - - -
15.06.2018 08:00:00 21,6 13,5 4 2 N 1012,0 30 -
15.06.2018 07:00:00 - - - - - - - -
15.06.2018 06:00:00 - - - - - - - -
15.06.2018 05:00:00 18,7 14,0 0 0 N 1011,5 - 0,0
15.06.2018 04:00:00 - - - - - - - -
15.06.2018 03:00:00 - - - - - - - -
15.06.2018 02:00:00 19,9 13,8 8 4 ENE 1011,3 - -
15.06.2018 01:00:00 - - - - - - - -
15.06.2018 00:00:00 - - - - - - - -
14.06.2018 23:00:00 23,2 13,7 5 3 NNE 1011,0 20 0,0
14.06.2018 22:00:00 - - - - - - - -
14.06.2018 21:00:00 - - - - - - - -
14.06.2018 20:00:00 24,4 14,4 9 5 SE 1009,1 20 -
14.06.2018 19:00:00 - - - - - - - -
14.06.2018 18:00:00 - - - - - - - -
14.06.2018 17:00:00 26,1 14,6 11 6 S 1008,4 20 0,0
14.06.2018 16:00:00 - - - - - - - -
14.06.2018 15:00:00 - - - - - - - -
14.06.2018 14:00:00 25,9 12,7 9 5 SE 1008,9 25 -
14.06.2018 13:00:00 - - - - - - - -
14.06.2018 12:00:00 - - - - - - - -
14.06.2018 11:00:00 23,6 12,2 2 1 - 1009,5 20 0,0
14.06.2018 10:00:00 - - - - - - - -
14.06.2018 09:00:00 - - - - - - - -
14.06.2018 08:00:00 20,5 15,9 2 1 N 1008,4 20 -
14.06.2018 07:00:00 - - - - - - - -

tt = Température de l'air
td = dewpoint
ff = Vitesse du vent
dd = Direction du vent
ppp = reduced air pressure
vv = visibility
rr = Quantités de précipitations

stations d'obs. à proximité